| time (UTC) | temp F | wind direction | speed MPH | gust MPH | rain 1hr in | rain 24hr in | rain mn in | humidity % | barometer mb |
| 20260503022356 | 38 | 50 | 0.0 | 0.0 | 0.00 | 0.03 | 0.03 | 74 | 1015.8 |
| 20260503021853 | 38 | 51 | 0.0 | 0.0 | 0.00 | 0.03 | 0.03 | 73 | 1016.0 |
| 20260503021349 | 38 | 51 | 0.0 | 0.0 | 0.00 | 0.03 | 0.03 | 72 | 1015.7 |
| 20260503020846 | 38 | 51 | 0.0 | 0.0 | 0.00 | 0.03 | 0.03 | 75 | 1015.8 |
| 20260503020344 | 38 | 51 | 0.0 | 0.0 | 0.00 | 0.03 | 0.03 | 75 | 1015.8 |
| 20260503015840 | 38 | 51 | 0.0 | 0.0 | 0.00 | 0.03 | 0.03 | 75 | 1015.8 |
| 20260503015337 | 38 | 52 | 0.0 | 0.0 | 0.00 | 0.03 | 0.03 | 71 | 1015.9 |
| 20260503014833 | 39 | 51 | 0.0 | 0.0 | 0.00 | 0.03 | 0.03 | 72 | 1015.7 |
| 20260503014331 | 39 | 51 | 0.0 | 0.0 | 0.00 | 0.03 | 0.03 | 68 | 1015.8 |
| 20260503013828 | 39 | 50 | 0.0 | 1.0 | 0.00 | 0.03 | 0.03 | 68 | 1015.8 |
| 20260503013325 | 40 | 55 | 0.0 | 0.0 | 0.00 | 0.03 | 0.03 | 71 | 1015.6 |
| 20260503012822 | 40 | 55 | 0.0 | 0.0 | 0.00 | 0.03 | 0.03 | 70 | 1015.6 |
| 20260503012320 | 40 | 56 | 0.0 | 0.0 | 0.00 | 0.03 | 0.03 | 70 | 1015.9 |
| 20260503011816 | 41 | 56 | 0.0 | 0.0 | 0.00 | 0.03 | 0.03 | 68 | 1016.0 |
| 20260503011313 | 41 | 55 | 0.0 | 1.0 | 0.00 | 0.03 | 0.03 | 69 | 1015.9 |
| 20260503010810 | 41 | 57 | 0.0 | 0.0 | 0.00 | 0.03 | 0.03 | 68 | 1015.6 |
| 20260503010307 | 41 | 58 | 0.0 | 0.0 | 0.00 | 0.03 | 0.03 | 65 | 1015.6 |
| 20260503005804 | 41 | 58 | 0.0 | 0.0 | 0.00 | 0.03 | 0.03 | 65 | 1015.5 |
| 20260503005304 | 42 | 58 | 0.0 | 0.0 | 0.00 | 0.03 | 0.03 | 68 | 1015.5 |
| 20260503004757 | 42 | 58 | 0.0 | 0.0 | 0.00 | 0.03 | 0.03 | 67 | 1015.4 |
| 20260503004255 | 42 | 58 | 0.0 | 0.0 | 0.00 | 0.03 | 0.03 | 63 | 1015.4 |
| 20260503003752 | 42 | 59 | 0.0 | 1.0 | 0.00 | 0.03 | 0.03 | 63 | 1015.2 |
| 20260503003249 | 43 | 59 | 0.0 | 0.0 | 0.00 | 0.03 | 0.03 | 66 | 1015.1 |
| 20260503002746 | 43 | 60 | 0.0 | 1.0 | 0.00 | 0.03 | 0.03 | 63 | 1015.1 |
| 20260503002243 | 43 | 59 | 0.0 | 0.0 | 0.00 | 0.03 | 0.03 | 63 | 1015.0 |
| 20260503001739 | 43 | 61 | 0.0 | 0.0 | 0.00 | 0.03 | 0.03 | 62 | 1015.0 |
| 20260503001235 | 44 | 62 | 0.0 | 1.0 | 0.00 | 0.03 | 0.03 | 64 | 1015.0 |
| 20260503000734 | 44 | 63 | 0.0 | 0.0 | 0.00 | 0.03 | 0.03 | 64 | 1015.0 |
| 20260503000233 | 45 | 61 | 0.0 | 1.0 | 0.00 | 0.03 | 0.03 | 61 | 1014.7 |
| 20260502235727 | 45 | 46 | 0.0 | 1.0 | 0.00 | 0.03 | 0.03 | 57 | 1014.6 |
| 20260502235225 | 46 | 47 | 0.0 | 1.0 | 0.00 | 0.03 | 0.03 | 57 | 1014.8 |
| 20260502234721 | 46 | 52 | 0.0 | 1.0 | 0.00 | 0.03 | 0.03 | 53 | 1014.8 |
| 20260502234219 | 46 | 60 | 0.0 | 1.0 | 0.00 | 0.03 | 0.03 | 52 | 1014.7 |
| 20260502233714 | 47 | 44 | 0.0 | 1.0 | 0.00 | 0.03 | 0.03 | 52 | 1014.5 |
| 20260502233211 | 47 | 52 | 0.0 | 1.0 | 0.00 | 0.03 | 0.03 | 51 | 1014.8 |
| 20260502232707 | 47 | 31 | 0.0 | 1.0 | 0.00 | 0.03 | 0.03 | 53 | 1014.7 |
| 20260502232205 | 48 | 40 | 0.0 | 3.0 | 0.00 | 0.03 | 0.03 | 43 | 1014.4 |
| 20260502231701 | 49 | 42 | 0.0 | 2.0 | 0.00 | 0.03 | 0.03 | 46 | 1014.4 |
| 20260502231159 | 49 | 67 | 0.0 | 1.0 | 0.00 | 0.03 | 0.03 | 45 | 1014.6 |
| 20260502230657 | 49 | 47 | 1.0 | 1.0 | 0.00 | 0.03 | 0.03 | 47 | 1014.4 |
| 20260502230155 | 49 | 134 | 1.0 | 3.0 | 0.00 | 0.03 | 0.03 | 45 | 1014.3 |
| 20260502225651 | 50 | 87 | 2.0 | 8.0 | 0.00 | 0.03 | 0.03 | 41 | 1014.4 |
| 20260502225149 | 51 | 15 | 2.0 | 3.0 | 0.00 | 0.03 | 0.03 | 44 | 1014.4 |
| 20260502224644 | 52 | 45 | 1.0 | 3.0 | 0.00 | 0.03 | 0.03 | 45 | 1014.4 |
| 20260502224141 | 52 | 18 | 0.0 | 2.0 | 0.00 | 0.03 | 0.03 | 37 | 1014.3 |
| 20260502223639 | 53 | 29 | 0.0 | 2.0 | 0.00 | 0.03 | 0.03 | 39 | 1014.2 |
| 20260502223137 | 53 | 34 | 1.0 | 8.0 | 0.00 | 0.03 | 0.03 | 43 | 1014.1 |
| 20260502222634 | 54 | 345 | 2.0 | 3.0 | 0.00 | 0.03 | 0.03 | 36 | 1014.0 |
| 20260502222131 | 54 | 55 | 1.0 | 3.0 | 0.00 | 0.03 | 0.03 | 37 | 1014.2 |
| 20260502221626 | 54 | 357 | 0.0 | 6.0 | 0.00 | 0.03 | 0.03 | 40 | 1014.1 |
| 20260502221123 | 54 | 272 | 1.0 | 2.0 | 0.00 | 0.03 | 0.03 | 41 | 1013.9 |
| 20260502220620 | 53 | 21 | 0.0 | 3.0 | 0.00 | 0.03 | 0.03 | 40 | 1013.9 |
| 20260502220116 | 52 | 332 | 1.0 | 5.0 | 0.00 | 0.03 | 0.03 | 43 | 1013.9 |
| 20260502215613 | 52 | 62 | 1.0 | 2.0 | 0.00 | 0.03 | 0.03 | 40 | 1014.0 |
| 20260502215110 | 51 | 61 | 0.0 | 3.0 | 0.00 | 0.03 | 0.03 | 46 | 1013.9 |
| 20260502214607 | 52 | 350 | 3.0 | 10.0 | 0.00 | 0.03 | 0.03 | 41 | 1014.0 |
| 20260502214104 | 52 | 322 | 2.0 | 5.0 | 0.00 | 0.03 | 0.03 | 40 | 1014.1 |
| 20260502213602 | 51 | 26 | 3.0 | 7.0 | 0.00 | 0.03 | 0.03 | 43 | 1014.0 |
| 20260502213059 | 51 | 19 | 2.0 | 3.0 | 0.00 | 0.03 | 0.03 | 44 | 1014.0 |
| 20260502212558 | 51 | 43 | 0.0 | 3.0 | 0.00 | 0.03 | 0.03 | 41 | 1014.0 |
| 20260502212055 | 52 | 264 | 1.0 | 3.0 | 0.00 | 0.03 | 0.03 | 42 | 1014.1 |
| 20260502211550 | 52 | 312 | 3.0 | 6.0 | 0.00 | 0.03 | 0.03 | 42 | 1013.7 |
| 20260502211048 | 53 | 352 | 4.0 | 8.0 | 0.00 | 0.03 | 0.03 | 40 | 1013.8 |
| 20260502210545 | 53 | 320 | 3.0 | 5.0 | 0.00 | 0.03 | 0.03 | 38 | 1013.9 |
| 20260502210042 | 53 | 43 | 2.0 | 2.0 | 0.00 | 0.03 | 0.03 | 38 | 1013.9 |
| 20260502205538 | 53 | 271 | 1.0 | 8.0 | 0.00 | 0.03 | 0.03 | 40 | 1013.8 |
| 20260502205036 | 55 | 325 | 6.0 | 8.0 | 0.00 | 0.03 | 0.03 | 37 | 1013.8 |
| 20260502204532 | 54 | 32 | 1.0 | 5.0 | 0.00 | 0.03 | 0.03 | 37 | 1013.9 |
| 20260502204030 | 54 | 273 | 5.0 | 7.0 | 0.00 | 0.03 | 0.03 | 38 | 1013.8 |
| 20260502203527 | 54 | 287 | 2.0 | 6.0 | 0.00 | 0.03 | 0.03 | 38 | 1013.9 |
| 20260502203024 | 53 | 258 | 4.0 | 6.0 | 0.00 | 0.03 | 0.03 | 39 | 1013.8 |
| 20260502202520 | 56 | 297 | 2.0 | 7.0 | 0.00 | 0.03 | 0.03 | 35 | 1013.9 |
| 20260502202019 | 55 | 260 | 3.0 | 7.0 | 0.00 | 0.03 | 0.03 | 37 | 1013.8 |
| 20260502201514 | 54 | 267 | 3.0 | 5.0 | 0.00 | 0.03 | 0.03 | 37 | 1013.9 |
| 20260502201011 | 55 | 292 | 3.0 | 6.0 | 0.00 | 0.03 | 0.03 | 39 | 1014.0 |
| 20260502200507 | 55 | 259 | 4.0 | 7.0 | 0.00 | 0.03 | 0.03 | 36 | 1013.7 |
| 20260502200005 | 56 | 7 | 1.0 | 9.0 | 0.00 | 0.03 | 0.03 | 41 | 1014.0 |
| 20260502195502 | 57 | 302 | 3.0 | 6.0 | 0.00 | 0.03 | 0.03 | 37 | 1013.8 |
| 20260502194958 | 56 | 327 | 5.0 | 8.0 | 0.00 | 0.03 | 0.03 | 35 | 1013.8 |
| 20260502194455 | 56 | 330 | 3.0 | 3.0 | 0.00 | 0.03 | 0.03 | 37 | 1014.1 |
| 20260502193950 | 55 | 12 | 2.0 | 5.0 | 0.00 | 0.03 | 0.03 | 37 | 1014.1 |
| 20260502193448 | 54 | 350 | 1.0 | 3.0 | 0.00 | 0.03 | 0.03 | 40 | 1014.2 |
| 20260502192944 | 55 | 263 | 1.0 | 7.0 | 0.00 | 0.03 | 0.03 | 39 | 1014.2 |
| 20260502192441 | 55 | 19 | 2.0 | 10.0 | 0.00 | 0.03 | 0.03 | 37 | 1014.1 |
| 20260502191937 | 55 | 270 | 2.0 | 3.0 | 0.00 | 0.03 | 0.03 | 38 | 1014.3 |
| 20260502191435 | 54 | 323 | 3.0 | 3.0 | 0.00 | 0.03 | 0.03 | 39 | 1014.3 |
| 20260502190933 | 55 | 350 | 2.0 | 9.0 | 0.00 | 0.03 | 0.03 | 38 | 1014.5 |
| 20260502190430 | 55 | 353 | 5.0 | 7.0 | 0.00 | 0.03 | 0.03 | 41 | 1014.4 |
| 20260502185926 | 55 | 291 | 4.0 | 9.0 | 0.00 | 0.03 | 0.03 | 38 | 1014.2 |
| 20260502185421 | 55 | 29 | 3.0 | 5.0 | 0.00 | 0.03 | 0.03 | 39 | 1014.3 |
| 20260502184918 | 55 | 297 | 1.0 | 2.0 | 0.00 | 0.03 | 0.03 | 38 | 1014.2 |
| 20260502184409 | 56 | 356 | 2.0 | 3.0 | 0.00 | 0.03 | 0.03 | 38 | 1014.4 |
| 20260502183905 | 55 | 286 | 3.0 | 3.0 | 0.00 | 0.03 | 0.03 | 39 | 1014.3 |
| 20260502183401 | 56 | 11 | 2.0 | 3.0 | 0.00 | 0.03 | 0.03 | 39 | 1014.5 |
| 20260502182857 | 56 | 291 | 2.0 | 7.0 | 0.00 | 0.03 | 0.03 | 40 | 1014.4 |
| 20260502182352 | 55 | 319 | 1.0 | 3.0 | 0.00 | 0.03 | 0.03 | 44 | 1014.3 |
| 20260502181849 | 54 | 278 | 2.0 | 8.0 | 0.00 | 0.03 | 0.03 | 40 | 1014.5 |
| 20260502181348 | 54 | 37 | 0.0 | 3.0 | 0.00 | 0.03 | 0.03 | 41 | 1014.3 |
| 20260502180845 | 54 | 5 | 1.0 | 3.0 | 0.00 | 0.03 | 0.03 | 38 | 1014.4 |
| 20260502180342 | 54 | 83 | 1.0 | 7.0 | 0.00 | 0.03 | 0.03 | 44 | 1014.2 |
| 20260502170301 | 55 | 301 | 3.0 | 3.0 | 0.00 | 0.03 | 0.03 | 43 | 1014.6 |
| 20260502164249 | 55 | 330 | 3.0 | 5.0 | 0.00 | 0.03 | 0.03 | 41 | 1014.6 |
| 20260502163744 | 54 | 311 | 3.0 | 3.0 | 0.00 | 0.03 | 0.03 | 45 | 1014.6 |
| 20260502163241 | 53 | 278 | 6.0 | 8.0 | 0.00 | 0.03 | 0.03 | 40 | 1014.6 |
| 20260502162738 | 54 | 282 | 7.0 | 9.0 | 0.00 | 0.03 | 0.03 | 44 | 1014.6 |
| 20260502162234 | 54 | 64 | 2.0 | 2.0 | 0.00 | 0.03 | 0.03 | 46 | 1014.6 |
| 20260502161731 | 53 | 280 | 3.0 | 6.0 | 0.00 | 0.03 | 0.03 | 46 | 1014.7 |
| 20260502161222 | 53 | 298 | 4.0 | 8.0 | 0.00 | 0.03 | 0.03 | 49 | 1014.9 |
| 20260502160721 | 52 | 292 | 2.0 | 3.0 | 0.00 | 0.03 | 0.03 | 51 | 1014.8 |
| 20260502160219 | 52 | 260 | 3.0 | 5.0 | 0.00 | 0.03 | 0.03 | 50 | 1014.8 |
| 20260502152127 | 53 | 309 | 4.0 | 6.0 | 0.00 | 0.03 | 0.03 | 52 | 1015.2 |
| 20260502151624 | 52 | 236 | 3.0 | 7.0 | 0.00 | 0.03 | 0.03 | 54 | 1015.1 |
| 20260502151121 | 53 | 286 | 8.0 | 10.0 | 0.00 | 0.03 | 0.03 | 50 | 1015.1 |
| 20260502150619 | 52 | 289 | 4.0 | 6.0 | 0.00 | 0.03 | 0.03 | 56 | 1015.0 |
| 20260502150115 | 52 | 321 | 3.0 | 7.0 | 0.00 | 0.03 | 0.03 | 59 | 1015.1 |
| 20260502130503 | 49 | 344 | 2.0 | 7.0 | 0.00 | 0.03 | 0.03 | 72 | 1015.2 |
| 20260502123446 | 44 | 325 | 1.0 | 2.0 | 0.00 | 0.03 | 0.03 | 83 | 1015.4 |
| 20260502122943 | 44 | 30 | 1.0 | 2.0 | 0.00 | 0.03 | 0.03 | 84 | 1015.6 |
| 20260502122439 | 43 | 250 | 2.0 | 5.0 | 0.00 | 0.03 | 0.03 | 84 | 1015.4 |
| 20260502121937 | 43 | 60 | 2.0 | 2.0 | 0.00 | 0.03 | 0.03 | 85 | 1015.5 |
| 20260502121434 | 43 | 11 | 1.0 | 3.0 | 0.00 | 0.03 | 0.03 | 86 | 1015.4 |
| 20260502120932 | 44 | 7 | 1.0 | 3.0 | 0.00 | 0.03 | 0.03 | 86 | 1015.5 |
| 20260502120428 | 45 | 37 | 0.0 | 1.0 | 0.00 | 0.03 | 0.03 | 87 | 1015.5 |
| 20260502115925 | 45 | 310 | 1.0 | 2.0 | 0.00 | 0.03 | 0.03 | 85 | 1015.2 |
| 20260502115422 | 44 | 68 | 0.0 | 1.0 | 0.00 | 0.03 | 0.03 | 92 | 1015.5 |
| 20260502114918 | 43 | 62 | 0.0 | 1.0 | 0.00 | 0.03 | 0.03 | 95 | 1015.5 |
| 20260502114415 | 43 | 31 | 0.0 | 0.0 | 0.00 | 0.03 | 0.03 | 97 | 1015.5 |
| 20260502113912 | 42 | 31 | 0.0 | 0.0 | 0.00 | 0.03 | 0.03 | 97 | 1015.5 |
| 20260502113410 | 43 | 30 | 0.0 | 1.0 | 0.00 | 0.03 | 0.03 | 97 | 1015.6 |
| 20260502112909 | 43 | 54 | 0.0 | 0.0 | 0.00 | 0.03 | 0.03 | 98 | 1015.6 |
| 20260502112405 | 42 | 59 | 0.0 | 0.0 | 0.00 | 0.03 | 0.03 | 98 | 1015.4 |
| 20260502111903 | 43 | 36 | 0.0 | 0.0 | 0.00 | 0.03 | 0.03 | 98 | 1015.2 |
| 20260502111400 | 42 | 37 | 0.0 | 1.0 | 0.00 | 0.03 | 0.03 | 99 | 1015.4 |
| 20260502110857 | 42 | 34 | 0.0 | 0.0 | 0.00 | 0.03 | 0.03 | 99 | 1015.0 |
| 20260502110355 | 42 | 33 | 0.0 | 1.0 | 0.00 | 0.03 | 0.03 | 99 | 1015.2 |
| 20260502105852 | 42 | 39 | 0.0 | 0.0 | 0.00 | 0.03 | 0.03 | 99 | 1014.9 |
| 20260502105349 | 42 | 41 | 0.0 | 0.0 | 0.00 | 0.03 | 0.03 | 99 | 1014.9 |
| 20260502104847 | 42 | 37 | 0.0 | 1.0 | 0.00 | 0.03 | 0.03 | 99 | 1014.7 |
| 20260502104344 | 42 | 48 | 0.0 | 0.0 | 0.00 | 0.03 | 0.03 | 99 | 1014.8 |
| 20260502103841 | 42 | 50 | 0.0 | 0.0 | 0.00 | 0.03 | 0.03 | 99 | 1014.6 |
| 20260502103339 | 42 | 57 | 0.0 | 0.0 | 0.00 | 0.03 | 0.03 | 99 | 1014.7 |
| 20260502102836 | 42 | 37 | 0.0 | 0.0 | 0.00 | 0.03 | 0.03 | 99 | 1014.6 |
| 20260502102332 | 42 | 44 | 0.0 | 1.0 | 0.00 | 0.03 | 0.03 | 99 | 1014.5 |
| 20260502101830 | 42 | 39 | 0.0 | 0.0 | 0.00 | 0.03 | 0.03 | 99 | 1014.4 |
| 20260502101328 | 43 | 44 | 0.0 | 0.0 | 0.00 | 0.03 | 0.03 | 99 | 1014.3 |
| 20260502100826 | 43 | 41 | 0.0 | 0.0 | 0.00 | 0.03 | 0.03 | 99 | 1014.3 |
| 20260502100325 | 44 | 333 | 0.0 | 5.0 | 0.00 | 0.03 | 0.03 | 99 | 1014.2 |
| 20260502091258 | 45 | 34 | 0.0 | 0.0 | 0.00 | 0.03 | 0.03 | 99 | 1013.7 |
| 20260502090756 | 45 | 34 | 0.0 | 0.0 | 0.00 | 0.03 | 0.03 | 99 | 1013.8 |
| 20260502090253 | 45 | 34 | 0.0 | 0.0 | 0.00 | 0.03 | 0.03 | 99 | 1013.7 |
| 20260502071153 | 45 | 106 | 0.0 | 0.0 | 0.00 | 0.02 | 0.02 | 99 | 1014.2 |
| 20260502070651 | 45 | 106 | 0.0 | 0.0 | 0.00 | 0.02 | 0.02 | 99 | 1014.0 |
| 20260502070149 | 45 | 106 | 0.0 | 0.0 | 0.00 | 0.02 | 0.02 | 99 | 1014.1 |
| 20260502065647 | 45 | 106 | 0.0 | 0.0 | 0.00 | 0.02 | 0.02 | 99 | 1014.1 |
| 20260502065144 | 45 | 106 | 0.0 | 0.0 | 0.00 | 0.02 | 0.02 | 99 | 1014.0 |
| 20260502064643 | 45 | 107 | 0.0 | 0.0 | 0.00 | 0.02 | 0.02 | 99 | 1014.3 |
| 20260502064140 | 45 | 108 | 0.0 | 0.0 | 0.00 | 0.02 | 0.02 | 99 | 1014.4 |
| 20260502063638 | 45 | 108 | 0.0 | 0.0 | 0.00 | 0.02 | 0.02 | 99 | 1014.3 |
| 20260502063135 | 45 | 108 | 0.0 | 0.0 | 0.00 | 0.02 | 0.02 | 99 | 1014.3 |
| 20260502062632 | 45 | 109 | 0.0 | 0.0 | 0.00 | 0.02 | 0.02 | 99 | 1014.3 |
| 20260502062130 | 45 | 110 | 0.0 | 0.0 | 0.00 | 0.02 | 0.02 | 99 | 1014.3 |
| 20260502061628 | 45 | 194 | 1.0 | 1.0 | 0.00 | 0.02 | 0.02 | 99 | 1014.3 |
| 20260502061125 | 45 | 102 | 0.0 | 0.0 | 0.00 | 0.02 | 0.02 | 99 | 1014.2 |
| 20260502060625 | 45 | 136 | 0.0 | 1.0 | 0.00 | 0.02 | 0.02 | 99 | 1014.4 |
| 20260502060122 | 45 | 29 | 0.0 | 0.0 | 0.00 | 0.02 | 0.02 | 99 | 1014.3 |
| 20260502055620 | 45 | 29 | 0.0 | 0.0 | 0.00 | 0.02 | 0.02 | 99 | 1014.2 |
| 20260502055118 | 45 | 29 | 0.0 | 0.0 | 0.00 | 0.02 | 0.02 | 99 | 1014.1 |
| 20260502054617 | 45 | 29 | 0.0 | 0.0 | 0.00 | 0.02 | 0.02 | 99 | 1014.0 |
| 20260502054113 | 45 | 29 | 0.0 | 0.0 | 0.00 | 0.02 | 0.02 | 99 | 1014.2 |
| 20260502053610 | 45 | 29 | 0.0 | 0.0 | 0.00 | 0.02 | 0.02 | 99 | 1014.2 |
| 20260502053108 | 45 | 29 | 0.0 | 0.0 | 0.00 | 0.02 | 0.02 | 99 | 1014.2 |
| 20260502052606 | 45 | 29 | 1.0 | 1.0 | 0.00 | 0.02 | 0.02 | 99 | 1014.2 |
| 20260502052104 | 45 | 29 | 0.0 | 0.0 | 0.00 | 0.02 | 0.02 | 99 | 1014.4 |
| 20260502051602 | 45 | 29 | 0.0 | 0.0 | 0.00 | 0.02 | 0.02 | 99 | 1014.3 |
| 20260502051059 | 45 | 29 | 0.0 | 0.0 | 0.00 | 0.02 | 0.02 | 98 | 1014.3 |
| 20260502050555 | 45 | 29 | 0.0 | 0.0 | 0.00 | 0.02 | 0.02 | 98 | 1014.4 |
| 20260502050052 | 45 | 28 | 0.0 | 0.0 | 0.00 | 0.02 | 0.02 | 98 | 1014.1 |
| 20260502045548 | 45 | 28 | 0.0 | 1.0 | 0.00 | 0.02 | 0.02 | 98 | 1014.3 |
| 20260502045046 | 45 | 28 | 0.0 | 0.0 | 0.00 | 0.02 | 0.02 | 98 | 1014.3 |
| 20260502044542 | 45 | 28 | 0.0 | 1.0 | 0.00 | 0.02 | 0.02 | 98 | 1014.4 |
| 20260502044039 | 45 | 27 | 0.0 | 0.0 | 0.00 | 0.02 | 0.02 | 98 | 1014.4 |
| 20260502043537 | 45 | 25 | 0.0 | 0.0 | 0.00 | 0.02 | 0.02 | 98 | 1014.5 |
| 20260502043033 | 45 | 38 | 1.0 | 1.0 | 0.00 | 0.02 | 0.02 | 98 | 1014.4 |
| 20260502042528 | 45 | 66 | 0.0 | 1.0 | 0.00 | 0.02 | 0.02 | 98 | 1014.7 |
| 20260502042026 | 45 | 56 | 0.0 | 1.0 | 0.00 | 0.02 | 0.02 | 97 | 1014.6 |
| 20260502041523 | 45 | 83 | 0.0 | 1.0 | 0.12 | 0.02 | 0.02 | 97 | 1014.5 |
| 20260502041020 | 45 | 63 | 0.0 | 0.0 | 0.12 | 0.02 | 0.02 | 97 | 1014.8 |
| 20260502040516 | 46 | 60 | 0.0 | 1.0 | 0.05 | 0.00 | 0.00 | 97 | 1014.7 |
| 20260502040014 | 45 | 95 | 0.0 | 0.0 | 0.00 | 0.02 | 0.02 | 97 | 1014.8 |
| 20260502035509 | 45 | 95 | 0.0 | 0.0 | 0.00 | 0.02 | 0.02 | 96 | 1014.5 |
| 20260502035007 | 45 | 95 | 0.0 | 0.0 | 0.00 | 0.02 | 0.02 | 96 | 1014.5 |
| 20260502034505 | 46 | 95 | 0.0 | 0.0 | 0.00 | 0.02 | 0.02 | 96 | 1014.5 |
| 20260502034003 | 46 | 95 | 0.0 | 0.0 | 0.00 | 0.02 | 0.02 | 96 | 1014.5 |
| 20260502033501 | 46 | 95 | 0.0 | 0.0 | 0.00 | 0.02 | 0.02 | 95 | 1014.4 |
| 20260502032957 | 46 | 94 | 0.0 | 0.0 | 0.00 | 0.02 | 0.02 | 95 | 1014.6 |
| 20260502032454 | 46 | 103 | 0.0 | 1.0 | 0.07 | 0.02 | 0.02 | 94 | 1014.6 |
| 20260502031950 | 46 | 62 | 0.0 | 1.0 | 0.07 | 0.02 | 0.02 | 93 | 1014.6 |
| 20260502031449 | 46 | 62 | 0.0 | 0.0 | 0.00 | 0.01 | 0.01 | 92 | 1014.6 |
| 20260502030947 | 46 | 59 | 0.0 | 0.0 | 0.05 | 0.01 | 0.01 | 91 | 1014.6 |
| 20260502030445 | 46 | 59 | 0.0 | 0.0 | 0.05 | 0.01 | 0.01 | 91 | 1014.6 |
| 20260502025942 | 46 | 58 | 0.0 | 0.0 | 0.00 | 0.00 | 0.00 | 90 | 1014.5 |
| 20260502025439 | 47 | 59 | 0.0 | 0.0 | 0.00 | 0.00 | 0.00 | 89 | 1014.6 |
| 20260502024937 | 47 | 59 | 0.0 | 0.0 | 0.00 | 0.00 | 0.00 | 88 | 1014.6 |
| 20260502024435 | 47 | 58 | 0.0 | 0.0 | 0.00 | 0.00 | 0.00 | 88 | 1014.6 |
| 20260502023933 | 47 | 58 | 0.0 | 1.0 | 0.00 | 0.00 | 0.00 | 87 | 1014.6 |
| 20260502023430 | 47 | 58 | 0.0 | 1.0 | 0.00 | 0.00 | 0.00 | 86 | 1014.5 |
| 20260502022922 | 47 | 59 | 0.0 | 0.0 | 0.00 | 0.00 | 0.00 | 85 | 1014.7 |